Location: Bouillancy
(49.1149°N, 2.9308°E)
Time: 08:16:31
(UTC+00:00)

Cosmos 1634 Rocket - Pass Details

Date: 30 September 2020
Orbit: 961 x 991 km, 82.9° (Epoch: 29 October)

Event Time Altitude Azimuth Distance (km) Brightness Sun altitude
Rises 19:18:05 0° 191° (SSW) 3,636 6.9 -18.6°
Reaches altitude 10° 19:20:35 10° 193° (SSW) 2,696 6.3 -19.0°
Maximum altitude 19:26:45 78° 280° (W) 995 4.1 -19.9°
Drops below altitude 10° 19:33:02 10° 7° (N) 2,733 6.5 -20.9°
Sets 19:35:34 0° 9° (N) 3,689 7.2 -21.3°
